�������C�����ː����j�^�v���󋵏��
Date,Time,Cs137(Bq/L),Cs134(Bq/L),�S��(Bq/L)
2016/10/18,00:00,0.88,0.071,ND
2016/10/18,00:10,0.85,0.070,ND
2016/10/18,00:20,0.84,0.078,ND
2016/10/18,00:30,0.81,0.084,ND
2016/10/18,00:40,0.80,0.086,ND
2016/10/18,00:50,0.79,0.098,ND
2016/10/18,01:00,0.74,0.095,ND
2016/10/18,01:10,0.74,0.096,ND
2016/10/18,01:20,0.73,0.092,ND
2016/10/18,01:30,0.73,0.093,ND
2016/10/18,01:40,0.72,0.092,ND
2016/10/18,01:50,0.72,0.088,ND
2016/10/18,02:00,0.71,0.090,ND
2016/10/18,02:10,0.72,0.085,ND
2016/10/18,02:20,0.70,0.096,ND
2016/10/18,02:30,0.72,0.084,ND
2016/10/18,02:40,0.75,0.071,ND
2016/10/18,02:50,0.75,0.076,ND
2016/10/18,03:00,0.74,0.077,ND
2016/10/18,03:10,0.79,0.071,ND
2016/10/18,03:20,0.80,0.076,ND
2016/10/18,03:30,0.77,0.083,ND
2016/10/18,03:40,0.74,0.093,ND
2016/10/18,03:50,0.74,0.093,ND
2016/10/18,04:00,0.75,0.090,ND
2016/10/18,04:10,0.72,0.097,ND
2016/10/18,04:20,0.72,0.087,ND
2016/10/18,04:30,0.73,0.080,ND
2016/10/18,04:40,0.76,0.077,ND
2016/10/18,04:50,0.77,0.072,ND
2016/10/18,05:00,0.79,0.075,ND
2016/10/18,05:10,0.80,0.078,ND
2016/10/18,05:20,0.82,0.075,ND
2016/10/18,05:30,0.83,0.077,ND
2016/10/18,05:40,0.84,0.085,ND
2016/10/18,05:50,0.90,0.092,ND
2016/10/18,06:00,0.83,0.091,ND
2016/10/18,06:10,0.84,0.096,ND
2016/10/18,06:20,0.88,0.12,ND
2016/10/18,06:30,0.91,0.12,ND
2016/10/18,06:40,0.84,0.16,ND
2016/10/18,06:50,0.85,0.12,ND
2016/10/18,07:00,0.85,0.12,ND
2016/10/18,07:10,0.86,0.11,ND
2016/10/18,07:20,0.88,0.11,ND
2016/10/18,07:30,0.86,0.11,ND
2016/10/18,07:40,0.87,0.10,ND
2016/10/18,07:50,0.88,0.099,ND
2016/10/18,08:00,0.90,0.089,ND
2016/10/18,08:10,0.92,0.077,ND
2016/10/18,08:20,0.91,0.071,ND
2016/10/18,08:30,0.91,0.069,ND
2016/10/18,08:40,0.90,0.073,ND
2016/10/18,08:50,0.89,0.076,ND
2016/10/18,09:00,0.86,0.091,ND
2016/10/18,09:10,0.82,0.10,ND
2016/10/18,09:20,0.79,0.11,ND
2016/10/18,09:30,0.78,0.11,ND
2016/10/18,09:40,0.77,0.094,ND
2016/10/18,09:50,0.74,0.092,ND
2016/10/18,10:00,0.71,0.082,ND
2016/10/18,10:10,0.68,0.076,ND
2016/10/18,10:20,0.68,0.063,ND
2016/10/18,10:30,0.66,0.059,ND
2016/10/18,10:40,0.63,0.066,ND
2016/10/18,10:50,0.62,0.066,ND
2016/10/18,11:00,0.61,0.067,ND
2016/10/18,11:10,0.61,0.073,ND
2016/10/18,11:20,0.59,0.073,ND
2016/10/18,11:30,0.58,0.079,ND
2016/10/18,11:40,0.57,0.070,ND
2016/10/18,11:50,0.59,0.059,ND
2016/10/18,12:00,0.61,0.049,ND
2016/10/18,12:10,0.59,0.050,ND
2016/10/18,12:20,0.60,0.046,ND
2016/10/18,12:30,0.59,0.052,ND
2016/10/18,12:40,0.61,0.052,ND
2016/10/18,12:50,0.59,0.062,ND
2016/10/18,13:00,0.58,0.061,ND
2016/10/18,13:10,0.59,0.060,ND
2016/10/18,13:20,0.58,0.060,ND
2016/10/18,13:30,0.57,0.060,ND
2016/10/18,13:40,0.57,0.068,ND
2016/10/18,13:50,0.58,0.065,ND
2016/10/18,14:00,0.57,0.069,ND
2016/10/18,14:10,0.58,0.065,ND
2016/10/18,14:20,0.59,0.059,ND
2016/10/18,14:30,0.61,0.051,ND
2016/10/18,14:40,0.61,0.051,ND
2016/10/18,14:50,0.62,0.045,ND
2016/10/18,15:00,0.60,0.046,ND
2016/10/18,15:10,0.58,0.056,ND
2016/10/18,15:20,0.57,0.066,ND
2016/10/18,15:30,0.56,0.071,ND
2016/10/18,15:40,0.56,0.068,ND
2016/10/18,15:50,0.57,0.072,ND
2016/10/18,16:00,0.59,0.062,ND
2016/10/18,16:10,0.59,0.059,ND
2016/10/18,16:20,0.59,0.057,ND
2016/10/18,16:30,0.60,0.048,ND
2016/10/18,16:40,0.64,0.053,ND
2016/10/18,16:50,0.59,0.042,ND
2016/10/18,17:00,0.65,0.045,ND
2016/10/18,17:10,0.60,0.044,ND
2016/10/18,17:20,0.64,0.045,ND
2016/10/18,17:30,0.64,0.051,ND
2016/10/18,17:40,0.64,0.066,ND
2016/10/18,17:50,0.62,0.073,ND
2016/10/18,18:00,0.59,0.081,ND
2016/10/18,18:10,0.60,0.079,ND
2016/10/18,18:20,0.63,0.078,ND
2016/10/18,18:30,0.60,0.062,ND
2016/10/18,18:40,0.63,0.062,ND
2016/10/18,18:50,0.64,0.060,ND
2016/10/18,19:00,0.66,0.068,ND
2016/10/18,19:10,0.66,0.073,ND
2016/10/18,19:20,0.62,0.090,ND
2016/10/18,19:30,0.62,0.10,ND
2016/10/18,19:40,0.63,0.11,ND
2016/10/18,19:50,0.63,0.11,ND
2016/10/18,20:00,0.64,0.11,ND
2016/10/18,20:10,0.62,0.10,ND
2016/10/18,20:20,0.64,0.097,ND
2016/10/18,20:30,0.63,0.082,ND
2016/10/18,20:40,0.64,0.076,ND
2016/10/18,20:50,0.68,0.061,ND
2016/10/18,21:00,0.65,0.065,ND
2016/10/18,21:10,0.68,0.054,ND
2016/10/18,21:20,0.68,0.062,ND
2016/10/18,21:30,0.67,0.066,ND
2016/10/18,21:40,0.67,0.069,ND
2016/10/18,21:50,0.66,0.069,ND
2016/10/18,22:00,0.67,0.074,ND
2016/10/18,22:10,0.67,0.080,ND
2016/10/18,22:20,0.69,0.070,ND
2016/10/18,22:30,0.69,0.071,ND
2016/10/18,22:40,0.72,0.092,ND
2016/10/18,22:50,0.73,0.094,ND
2016/10/18,23:00,0.70,0.092,ND
2016/10/18,23:10,0.70,0.096,ND
2016/10/18,23:20,0.69,0.10,ND
2016/10/18,23:30,0.69,0.099,ND
2016/10/18,23:40,0.67,0.074,ND
2016/10/18,23:50,0.66,0.074,ND
